Location: Gad�tanya
(48.0500°N, 20.8500°E)
Time: 11:33:14
(UTC+00:00)

Cosmos 2360 Rocket - Pass Details

Date: 05 July 2020
Orbit: 832 x 846 km, 71.0° (Epoch: 15 August)

Event Time Altitude Azimuth Distance (km) Brightness Sun altitude
Rises 20:33:48 0° 232° (SW) 3,381 5.3 -13.7°
Reaches altitude 10° 20:36:24 10° 240° (WSW) 2,452 4.6 -13.9°
Maximum altitude 20:41:38 38° 308° (NW) 1,262 3.7 -14.3°
Drops below altitude 10° 20:46:54 10° 16° (NNE) 2,474 5.3 -14.8°
Sets 20:49:33 0° 25° (NNE) 3,414 5.9 -15.0°
